| time (UTC) | temp F | wind direction | speed knots | gust knots | rain 1hr in | rain 24hr in | rain mn in | humidity % | barometer mb |
| 20260505065341 | 56 | 298 | 1.7 | 2.6 | 0.00 | 0.00 | 0.00 | 80 | 1013.0 |
| 20260505064338 | 57 | 296 | 0.0 | 2.6 | 0.00 | 0.00 | 0.00 | 78 | 1012.9 |
| 20260505063321 | 58 | 311 | 1.7 | 3.5 | 0.00 | 0.00 | 0.00 | 77 | 1012.8 |
| 20260505062343 | 58 | 254 | 0.0 | 1.7 | 0.00 | 0.00 | 0.00 | 75 | 1012.8 |
| 20260505061353 | 59 | 311 | 0.9 | 3.5 | 0.00 | 0.00 | 0.00 | 73 | 1012.6 |
| 20260505060344 | 60 | 307 | 0.9 | 3.5 | 0.00 | 0.00 | 0.00 | 71 | 1012.4 |
| 20260505055351 | 60 | 355 | 3.5 | 7.0 | 0.00 | 0.00 | 0.00 | 71 | 1012.2 |
| 20260505054407 | 61 | 308 | 4.3 | 10.4 | 0.00 | 0.00 | 0.00 | 70 | 1012.1 |
| 20260505053338 | 61 | 355 | 2.6 | 5.2 | 0.00 | 0.00 | 0.00 | 69 | 1012.0 |
| 20260505052355 | 62 | 343 | 3.5 | 7.8 | 0.00 | 0.00 | 0.00 | 68 | 1012.0 |
| 20260505051342 | 62 | 328 | 3.5 | 7.0 | 0.00 | 0.00 | 0.00 | 67 | 1011.9 |
| 20260505050336 | 63 | 324 | 3.5 | 7.8 | 0.00 | 0.00 | 0.00 | 67 | 1011.8 |
| 20260505041402 | 65 | 346 | 3.5 | 5.2 | 0.00 | 0.00 | 0.00 | 66 | 1011.6 |
| 20260505040332 | 65 | 338 | 3.5 | 5.2 | 0.00 | 0.00 | 0.00 | 66 | 1011.4 |
| 20260505035406 | 66 | 347 | 0.9 | 3.5 | 0.00 | 0.00 | 0.00 | 65 | 1011.4 |
| 20260505034319 | 67 | 11 | 1.7 | 3.5 | 0.00 | 0.00 | 0.00 | 64 | 1011.2 |
| 20260505033332 | 67 | 340 | 3.5 | 7.0 | 0.00 | 0.00 | 0.00 | 63 | 1011.0 |
| 20260505032321 | 68 | 349 | 5.2 | 8.7 | 0.00 | 0.00 | 0.00 | 62 | 1011.0 |
| 20260505031332 | 69 | 332 | 3.5 | 7.0 | 0.00 | 0.00 | 0.00 | 61 | 1011.0 |
| 20260505030318 | 69 | 355 | 3.5 | 5.2 | 0.00 | 0.00 | 0.00 | 60 | 1010.9 |
| 20260505025334 | 69 | 5 | 2.6 | 5.2 | 0.00 | 0.00 | 0.00 | 61 | 1010.8 |
| 20260505024343 | 70 | 306 | 2.6 | 7.0 | 0.00 | 0.00 | 0.00 | 60 | 1010.9 |
| 20260505023320 | 70 | 342 | 3.5 | 8.7 | 0.00 | 0.00 | 0.00 | 59 | 1010.7 |
| 20260505022359 | 71 | 5 | 5.2 | 9.6 | 0.00 | 0.00 | 0.00 | 57 | 1010.7 |
| 20260505021343 | 72 | 345 | 5.2 | 9.6 | 0.00 | 0.00 | 0.00 | 53 | 1010.6 |
| 20260505020322 | 73 | 343 | 3.5 | 8.7 | 0.00 | 0.00 | 0.00 | 50 | 1010.5 |
| 20260505015406 | 74 | 317 | 5.2 | 9.6 | 0.00 | 0.00 | 0.00 | 51 | 1010.4 |
| 20260505014404 | 75 | 302 | 4.3 | 8.7 | 0.00 | 0.00 | 0.00 | 50 | 1010.3 |
| 20260505013339 | 76 | 305 | 4.3 | 7.8 | 0.00 | 0.00 | 0.00 | 49 | 1010.3 |
| 20260505012359 | 77 | 302 | 1.7 | 8.7 | 0.00 | 0.00 | 0.00 | 48 | 1010.2 |
| 20260505011335 | 78 | 319 | 2.6 | 7.8 | 0.00 | 0.00 | 0.00 | 46 | 1010.3 |
| 20260505010321 | 78 | 309 | 0.9 | 4.3 | 0.00 | 0.00 | 0.00 | 45 | 1010.3 |
| 20260505005318 | 78 | 308 | 2.6 | 8.7 | 0.00 | 0.00 | 0.00 | 43 | 1010.3 |
| 20260505004320 | 79 | 186 | 1.7 | 5.2 | 0.00 | 0.00 | 0.00 | 43 | 1010.3 |
| 20260505003340 | 79 | 207 | 1.7 | 6.1 | 0.00 | 0.00 | 0.00 | 42 | 1010.3 |
| 20260505002350 | 79 | 193 | 1.7 | 6.1 | 0.00 | 0.00 | 0.00 | 43 | 1010.3 |
| 20260505001319 | 80 | 194 | 2.6 | 6.1 | 0.00 | 0.00 | 0.00 | 43 | 1010.3 |
| 20260505000337 | 80 | 200 | 2.6 | 5.2 | 0.00 | 0.00 | 0.00 | 42 | 1010.4 |
| 20260504235341 | 80 | 176 | 4.3 | 7.8 | 0.00 | 0.00 | 0.00 | 42 | 1010.4 |
| 20260504234326 | 80 | 314 | 0.9 | 5.2 | 0.00 | 0.00 | 0.00 | 42 | 1010.4 |
| 20260504233327 | 80 | 196 | 0.9 | 6.1 | 0.00 | 0.00 | 0.00 | 42 | 1010.5 |
| 20260504232346 | 80 | 325 | 1.7 | 7.0 | 0.00 | 0.00 | 0.00 | 44 | 1010.4 |
| 20260504231403 | 80 | 161 | 5.2 | 7.8 | 0.00 | 0.00 | 0.00 | 42 | 1010.5 |
| 20260504230352 | 80 | 171 | 4.3 | 7.8 | 0.00 | 0.00 | 0.00 | 44 | 1010.5 |
| 20260504225319 | 80 | 13 | 1.7 | 7.0 | 0.00 | 0.00 | 0.00 | 44 | 1010.5 |
| 20260504224345 | 80 | 188 | 4.3 | 7.8 | 0.00 | 0.00 | 0.00 | 44 | 1010.7 |
| 20260504223324 | 80 | 184 | 1.7 | 7.8 | 0.00 | 0.00 | 0.00 | 44 | 1010.8 |
| 20260504222341 | 80 | 177 | 2.6 | 7.0 | 0.00 | 0.00 | 0.00 | 44 | 1010.8 |
| 20260504221318 | 80 | 186 | 5.2 | 10.4 | 0.00 | 0.00 | 0.00 | 43 | 1010.9 |
| 20260504220331 | 81 | 335 | 0.9 | 7.0 | 0.00 | 0.00 | 0.00 | 44 | 1011.0 |
| 20260504215319 | 80 | 177 | 6.1 | 9.6 | 0.00 | 0.00 | 0.00 | 44 | 1011.1 |
| 20260504214317 | 80 | 218 | 3.5 | 7.0 | 0.00 | 0.00 | 0.00 | 46 | 1011.2 |
| 20260504213357 | 80 | 215 | 5.2 | 8.7 | 0.00 | 0.00 | 0.00 | 46 | 1011.3 |
| 20260504212346 | 81 | 174 | 1.7 | 5.2 | 0.00 | 0.00 | 0.00 | 44 | 1011.3 |
| 20260504211403 | 80 | 214 | 284.2 | 284.2 | 0.00 | 0.00 | 0.00 | 43 | 1011.3 |
| 20260504210329 | 80 | 312 | 3.5 | 8.7 | 0.00 | 0.00 | 0.00 | 41 | 1011.4 |
| 20260504204317 | 79 | 171 | 0.0 | 7.8 | 0.00 | 0.00 | 0.00 | 44 | 1011.4 |
| 20260504203334 | 78 | 198 | 3.5 | 7.8 | 0.00 | 0.00 | 0.00 | 47 | 1011.5 |
| 20260504202342 | 77 | 202 | 2.6 | 5.2 | 0.00 | 0.00 | 0.00 | 46 | 1011.6 |
| 20260504201350 | 77 | 200 | 3.5 | 7.0 | 0.00 | 0.00 | 0.00 | 46 | 1011.5 |
| 20260504200339 | 76 | 210 | 3.5 | 7.0 | 0.00 | 0.00 | 0.00 | 50 | 1011.6 |
| 20260504195326 | 76 | 155 | 3.5 | 7.0 | 0.00 | 0.00 | 0.00 | 48 | 1011.6 |
| 20260504194324 | 76 | 172 | 4.3 | 7.8 | 0.00 | 0.00 | 0.00 | 47 | 1011.6 |
| 20260504193324 | 76 | 119 | 1.7 | 6.1 | 0.00 | 0.00 | 0.00 | 50 | 1011.6 |
| 20260504192351 | 75 | 187 | 4.3 | 8.7 | 0.00 | 0.00 | 0.00 | 50 | 1011.5 |
| 20260504191341 | 75 | 177 | 2.6 | 7.0 | 0.00 | 0.00 | 0.00 | 52 | 1011.6 |
| 20260504190359 | 75 | 157 | 2.6 | 7.0 | 0.00 | 0.00 | 0.00 | 51 | 1011.7 |
| 20260504185346 | 76 | 321 | 2.6 | 5.2 | 0.00 | 0.00 | 0.00 | 51 | 1011.8 |
| 20260504184318 | 75 | 219 | 1.7 | 7.0 | 0.00 | 0.00 | 0.00 | 52 | 1011.9 |
| 20260504183355 | 75 | 209 | 1.7 | 6.1 | 0.00 | 0.00 | 0.00 | 50 | 1011.9 |
| 20260504182344 | 74 | 173 | 4.3 | 7.0 | 0.00 | 0.00 | 0.00 | 52 | 1011.9 |
| 20260504181335 | 74 | 180 | 1.7 | 6.1 | 0.00 | 0.00 | 0.00 | 52 | 1012.0 |
| 20260504180321 | 73 | 123 | 3.5 | 6.1 | 0.00 | 0.00 | 0.00 | 58 | 1011.9 |
| 20260504175318 | 73 | 173 | 4.3 | 7.0 | 0.00 | 0.00 | 0.00 | 56 | 1011.9 |
| 20260504174336 | 72 | 141 | 1.7 | 7.0 | 0.00 | 0.00 | 0.00 | 58 | 1011.9 |
| 20260504173356 | 72 | 205 | 2.6 | 7.8 | 0.00 | 0.00 | 0.00 | 59 | 1011.8 |
| 20260504172342 | 71 | 180 | 1.7 | 7.0 | 0.00 | 0.00 | 0.00 | 58 | 1011.8 |
| 20260504171337 | 71 | 201 | 2.6 | 4.3 | 0.00 | 0.00 | 0.00 | 59 | 1012.0 |
| 20260504170344 | 71 | 169 | 1.7 | 4.3 | 0.00 | 0.00 | 0.00 | 59 | 1012.0 |
| 20260504160325 | 63 | 172 | 1.7 | 2.6 | 0.00 | 0.00 | 0.00 | 73 | 1012.0 |
| 20260504150341 | 60 | 87 | 0.0 | 0.9 | 0.00 | 0.00 | 0.00 | 80 | 1011.9 |
| 20260504140338 | 50 | 318 | 0.0 | 0.0 | 0.00 | 0.00 | 0.00 | 95 | 1011.3 |
| 20260504130314 | 47 | 318 | 0.0 | 0.0 | 0.00 | 0.00 | 0.00 | 94 | 1011.0 |
| 20260504120315 | 47 | 318 | 0.0 | 0.0 | 0.00 | 0.00 | 0.00 | 93 | 1010.7 |
| 20260504110334 | 49 | 318 | 0.0 | 0.0 | 0.00 | 0.00 | 0.00 | 92 | 1010.7 |
| 20260504100331 | 50 | 318 | 0.0 | 0.0 | 0.00 | 0.00 | 0.00 | 91 | 1010.9 |
| 20260504081327 | 52 | 318 | 0.0 | 0.0 | 0.00 | 0.00 | 0.00 | 90 | 1011.0 |
| 20260504080315 | 52 | 318 | 0.0 | 0.0 | 0.00 | 0.00 | 0.00 | 89 | 1011.0 |
| 20260504070334 | 54 | 318 | 0.0 | 0.0 | 0.00 | 0.00 | 0.00 | 86 | 1010.9 |